TimeMDT,TemperatureF,Dew PointF,Humidity,Sea Level PressureIn,VisibilityMPH,Wind Direction,Wind SpeedMPH,Gust SpeedMPH,PrecipitationIn,Events,Conditions,WindDirDegrees,DateUTC
12:53 AM,43.0,28.9,58,29.86,10.0,Calm,Calm,-,N/A,,Clear,0,2013-04-28 06:53:00
1:53 AM,42.1,28.9,60,29.84,10.0,North,3.5,-,N/A,,Clear,350,2013-04-28 07:53:00
2:53 AM,45.0,28.0,52,29.81,10.0,NNW,8.1,-,N/A,,Clear,340,2013-04-28 08:53:00
3:53 AM,52.0,27.0,38,29.78,10.0,NW,9.2,21.9,N/A,,Clear,310,2013-04-28 09:53:00
4:53 AM,45.0,28.0,52,29.80,10.0,NNW,3.5,-,N/A,,Clear,330,2013-04-28 10:53:00
5:53 AM,45.0,28.0,52,29.80,10.0,NNW,5.8,-,N/A,,Clear,330,2013-04-28 11:53:00
7:53 AM,54.0,28.0,37,29.84,10.0,NW,9.2,-,N/A,,Clear,310,2013-04-28 13:53:00
8:53 AM,60.1,28.0,30,29.85,10.0,NW,16.1,21.9,N/A,,Clear,320,2013-04-28 14:53:00
9:53 AM,62.1,27.0,26,29.86,10.0,North,15.0,-,N/A,,Clear,360,2013-04-28 15:53:00
10:53 AM,63.0,28.0,27,29.89,10.0,North,12.7,19.6,N/A,,Clear,360,2013-04-28 16:53:00
11:53 AM,62.1,27.0,26,29.89,10.0,Calm,Calm,-,N/A,,Clear,0,2013-04-28 17:53:00
12:53 PM,66.0,28.0,24,29.87,10.0,Variable,5.8,-,N/A,,Clear,0,2013-04-28 18:53:00
1:53 PM,68.0,28.0,22,29.86,10.0,Variable,6.9,-,N/A,,Clear,0,2013-04-28 19:53:00
2:53 PM,66.9,28.0,23,29.83,10.0,East,8.1,-,N/A,,Clear,90,2013-04-28 20:53:00
3:53 PM,66.9,28.0,23,29.77,10.0,NNE,9.2,-,N/A,,Clear,30,2013-04-28 21:53:00
4:53 PM,66.9,30.0,25,29.78,10.0,ENE,17.3,23.0,N/A,,Clear,70,2013-04-28 22:53:00
5:53 PM,61.0,34.0,36,29.81,10.0,NE,20.7,28.8,N/A,,Mostly Cloudy,50,2013-04-28 23:53:00
6:53 PM,59.0,34.0,39,29.81,10.0,NE,17.3,24.2,N/A,,Clear,50,2013-04-29 00:53:00
7:53 PM,55.9,34.0,44,29.83,10.0,NNE,13.8,19.6,N/A,,Clear,30,2013-04-29 01:53:00
8:53 PM,52.0,36.0,54,29.86,10.0,NNE,16.1,23.0,N/A,,Clear,30,2013-04-29 02:53:00
9:53 PM,48.9,37.0,64,29.89,10.0,NNE,4.6,-,N/A,,Partly Cloudy,20,2013-04-29 03:53:00
10:53 PM,45.0,36.0,71,29.89,10.0,East,3.5,-,N/A,,Clear,90,2013-04-29 04:53:00
11:53 PM,42.1,36.0,79,29.89,10.0,South,3.5,-,N/A,,Clear,190,2013-04-29 05:53:00